Location: Riverside Cemetery
(38.3047°N, 99.7773°W)
Time: 06:42:18
(UTC+00:00)

Cosmos 2082 Rocket - Pass Details

Date: 19 September 2020
Orbit: 834 x 852 km, 71.0° (Epoch: 18 October)

Event Time Altitude Azimuth Distance (km) Brightness Sun altitude
Rises 03:29:16 0° 352° (N) 3,389 5.8 -32.1°
Reaches altitude 10° 03:32:38 10° 12° (NNE) 2,452 4.8 -32.7°
Enters shadow 03:33:37 13° 21° (NNE) 2,249 4.5 -32.8°
